• Join FlightAware (Why Join?)
  • Login
  • US Flag 
09:39PM EDT


 

Airport Tracker/Info


-or-


 

Live Flight TrackerFlight Track Log ✈ AWI3680 ✈ 01-Jul-2013 ✈ KPHL - KALB

Flight Track Log - Related Links

Times and Time Zones

All times are in EDT time to prevent confusion due to time zone crossing. See the AWI3680 flight status page for this flight to view local times or setup timezone preferences in your user account.

Time Position Orientation Groundspeed Altitude Reporting Facility
EDT Latitude Longitude Course Direction KTS MPH feet Rate Location/Type
06:46PM 39.8833 -75.2167 105° East 159 183 700  Level Philadelphia TRACON
06:48PM 39.8667 -75.1333 105° East 226 260 2,400 1,620 Climbing Philadelphia TRACON
06:48PM 39.8500 -75.0500 105° East 279 321 4,000 2,220 Climbing Philadelphia TRACON
06:50PM 39.8167 -74.8809 90° East  Level FlightAware Approximate
06:51PM 39.8016 -74.7910 105° East  Level FlightAware Approximate
06:51PM 39.8139 -74.8436 103° East 295 339 9,300  Level New York Center
06:52PM 39.7836 -74.7016 105° East  Level FlightAware Approximate
06:52PM 39.8011 -74.7319 98° East 295 339 11,300  Level New York Center
06:53PM 39.8600 -74.6542 45° Northeast 300 345 13,200 2,100 Climbing New York Center
06:54PM 39.9333 -74.5797 38° Northeast 305 351 15,600 2,160 Climbing New York Center
06:55PM 40.0042 -74.5106 37° Northeast 310 357 17,600 1,380 Climbing New York Center
06:56PM 40.0772 -74.4411 36° Northeast 316 364 18,400 3,180 Climbing New York Center
06:57PM 40.1736 -74.3647 31° Northeast 354 407 24,000 420 Climbing New York Center
06:58PM 40.2547 -74.2956 33° Northeast 368 423 19,300 -1,800 Descending New York Center
06:59PM 40.3528 -74.2189 31° Northeast 387 445 20,400 1,020 Climbing New York Center
07:00PM 40.4467 -74.1444 31° Northeast 393 452 21,400 900 Climbing New York Center
07:01PM 40.6392 -73.9936 31° Northeast 392 451 23,100 780 Climbing Boston Center
07:02PM 40.7361 -73.9136 32° Northeast 398 458 23,700 420 Climbing Boston Center
07:03PM 40.8311 -73.8197 37° Northeast 405 466 24,000 -240 Climbing Boston Center
07:04PM 40.9381 -73.7506 26° Northeast 418 481 23,300 -540 Descending Boston Center
07:05PM 41.0633 -73.7283 North 430 495 23,000 -240 Descending Boston Center
07:06PM 41.1844 -73.7061 North 430 495 22,900 -660 Descending Boston Center
07:07PM 41.3056 -73.6808 North 437 503 21,700 -1,200 Descending Boston Center
07:08PM 41.4269 -73.6556 North 437 503 20,500 -1,140 Descending Boston Center
07:09PM 41.5186 -73.6378 North 431 496 19,500 -1,440 Descending Boston Center
07:10PM 41.6525 -73.6125 North 404 465 17,700 -1,800 Descending Boston Center
07:11PM 41.7464 -73.5947 North 386 444 16,000 -1,800 Descending Boston Center
07:12PM 41.8592 -73.5744 North 380 437 14,100 -1,860 Descending Boston Center
07:13PM 41.9553 -73.5539 North 374 430 12,300 -1,560 Descending Boston Center
07:14PM 42.0617 -73.5333 North 366 421 11,000 -600 Descending Boston Center
07:16PM 42.1722 -73.5269 North 312 359 11,000  Level Boston Center
07:16PM 42.2219 -73.5586 335° Northwest 313 360 11,000 -660 Level Boston Center
07:18PM 42.3150 -73.6250 332° Northwest 307 353 9,800 -1,680 Descending Boston Center
07:19PM 42.3936 -73.6797 333° Northwest 306 352 7,500 -2,040 Descending Boston Center
07:20PM 42.4639 -73.7319 331° Northwest 294 338 5,800 -1,500 Descending Boston Center
07:20PM 42.5156 -73.7667 334° Northwest 272 313 4,800 -1,200 Descending Boston Center